FW8825 Weather Reports


time (UTC)temp
C
wind
direction
speed
KPH
gust
KPH
rain 1hr
cm
rain 24hr
cm
rain mn
cm
humidity
%
barometer
mb
20260506045005 6 1 9.7 25.7 0.00 0.00 0.00 82 1014.4
20260506044505 6 2 8.0 25.7 0.00 0.00 0.00 82 1014.5
20260506044004 6 3 6.4 19.3 0.00 0.00 0.00 82 1014.4
20260506043505 6 6 6.4 16.1 0.00 0.00 0.00 82 1014.5
20260506043005 6 7 8.0 16.1 0.00 0.00 0.00 82 1014.5
20260506042505 6 12 8.0 19.3 0.00 0.00 0.00 82 1014.3
20260506042005 6 20 8.0 19.3 0.00 0.00 0.00 82 1014.6
20260506041504 6 23 9.7 16.1 0.00 0.00 0.00 82 1014.6
20260506041005 6 25 9.7 17.7 0.00 0.00 0.00 82 1014.5
20260506040005 6 23 8.0 16.1 0.00 0.00 0.00 82 1014.6
20260506035505 6 16 8.0 19.3 0.00 0.00 0.00 82 1014.5
20260506034505 6 21 9.7 17.7 0.00 0.00 0.00 82 1014.6
20260506034004 6 13 8.0 17.7 0.00 0.00 0.00 82 1014.6
20260506033505 6 5 8.0 16.1 0.00 0.00 0.00 82 1014.7
20260506033005 6 4 8.0 17.7 0.00 0.00 0.00 82 1014.7
20260506032005 6 16 9.7 19.3 0.00 0.00 0.00 82 1014.7
20260506031505 6 13 9.7 19.3 0.00 0.00 0.00 81 1014.7
20260506031004 6 10 9.7 17.7 0.00 0.00 0.00 81 1014.8
20260506030004 6 24 9.7 19.3 0.00 0.00 0.00 81 1014.7
20260506025505 6 23 9.7 19.3 0.00 0.00 0.00 81 1014.7
20260506024504 6 20 8.0 16.1 0.00 0.00 0.00 81 1014.8
20260506023504 6 20 9.7 17.7 0.00 0.00 0.00 80 1014.9
20260506023005 6 11 9.7 17.7 0.00 0.00 0.00 80 1015.0
20260506022505 6 11 8.0 17.7 0.00 0.00 0.00 80 1015.0
20260506022005 6 19 6.4 16.1 0.00 0.00 0.00 80 1015.1
20260506021505 6 17 4.8 11.3 0.00 0.00 0.00 80 1015.0
20260506021005 6 15 6.4 11.3 0.00 0.00 0.00 80 1015.0
20260506020504 6 17 6.4 12.9 0.00 0.00 0.00 80 1015.0
20260506020005 6 15 6.4 14.5 0.00 0.00 0.00 80 1015.0
20260506015504 6 24 6.4 14.5 0.00 0.00 0.00 79 1015.1
20260506015004 6 36 6.4 12.9 0.00 0.00 0.00 79 1015.0
20260506014504 6 37 8.0 14.5 0.00 0.00 0.00 79 1015.1
20260506014004 6 40 8.0 14.5 0.00 0.00 0.00 79 1015.1
20260506013504 6 48 8.0 14.5 0.00 0.00 0.00 79 1015.0
20260506013004 6 47 8.0 14.5 0.00 0.00 0.00 79 1015.1
20260506012504 6 42 8.0 16.1 0.00 0.00 0.00 78 1015.1
20260506012004 6 45 6.4 17.7 0.00 0.00 0.00 78 1015.2
20260506011504 6 42 6.4 17.7 0.00 0.00 0.00 78 1015.2
20260506011004 7 33 4.8 14.5 0.00 0.00 0.00 78 1015.3
20260506010504 7 34 4.8 14.5 0.00 0.00 0.00 78 1015.3
20260506010005 7 37 6.4 12.9 0.00 0.00 0.00 78 1015.2
20260506005504 7 38 8.0 14.5 0.00 0.00 0.00 78 1015.3
20260506005005 7 31 6.4 16.1 0.00 0.00 0.00 78 1015.3
20260506004004 7 17 6.4 14.5 0.00 0.00 0.00 78 1015.3
20260506003504 7 24 8.0 12.9 0.00 0.00 0.00 78 1015.4
20260506003005 7 36 9.7 16.1 0.00 0.00 0.00 78 1015.4
20260506002504 7 41 9.7 17.7 0.00 0.00 0.00 77 1015.4
20260506002005 7 41 8.0 20.9 0.00 0.00 0.00 78 1015.3
20260506000504 7 35 6.4 14.5 0.00 0.00 0.00 78 1015.4
20260506000004 7 41 6.4 14.5 0.00 0.00 0.00 78 1015.4
20260505235504 7 43 8.0 12.9 0.00 0.00 0.00 77 1015.4
20260505235005 7 44 9.7 17.7 0.00 0.00 0.00 77 1015.5
20260505234504 7 49 9.7 17.7 0.00 0.00 0.00 77 1015.5
20260505233507 7 37 8.0 17.7 0.00 0.00 0.00 77 1015.4
20260505233007 7 35 8.0 17.7 0.00 0.00 0.00 77 1015.5
20260505232507 7 43 11.3 16.1 0.00 0.00 0.00 76 1015.4
20260505232008 7 47 12.9 20.9 0.00 0.00 0.00 76 1015.5
20260505231007 7 50 12.9 24.1 0.00 0.00 0.00 76 1015.4
20260505230507 7 54 12.9 20.9 0.00 0.00 0.00 76 1015.5
20260505230008 7 48 12.9 22.5 0.00 0.00 0.00 77 1015.6
20260505225508 7 46 14.5 22.5 0.00 0.00 0.00 77 1015.5
20260505225008 8 49 12.9 20.9 0.00 0.00 0.00 78 1015.4
20260505224508 8 41 11.3 20.9 0.00 0.00 0.00 79 1015.4
20260505224007 8 35 11.3 20.9 0.00 0.00 0.00 79 1015.5
20260505223507 8 42 12.9 19.3 0.00 0.00 0.00 79 1015.5
20260505223007 8 49 14.5 25.7 0.00 0.00 0.00 78 1015.4
20260505222507 8 48 14.5 25.7 0.00 0.00 0.00 78 1015.4
20260505221507 8 47 12.9 22.5 0.00 0.00 0.00 78 1015.3
20260505221007 8 43 12.9 22.5 0.00 0.00 0.00 77 1015.3
20260505220507 8 44 12.9 20.9 0.00 0.00 0.00 77 1015.3
20260505220007 8 45 12.9 20.9 0.00 0.00 0.00 76 1015.4
20260505215507 8 45 12.9 20.9 0.00 0.00 0.00 76 1015.3
20260505215007 8 50 14.5 20.9 0.00 0.00 0.00 75 1015.4
20260505214507 8 47 16.1 24.1 0.00 0.00 0.00 75 1015.5
20260505214007 8 44 16.1 25.7 0.00 0.00 0.00 75 1015.5
20260505213507 8 44 17.7 27.4 0.00 0.00 0.00 74 1015.4
20260505213008 8 46 17.7 29.0 0.00 0.00 0.00 74 1015.4
20260505212507 8 49 16.1 29.0 0.00 0.00 0.00 73 1015.4
20260505212007 8 55 16.1 25.7 0.00 0.00 0.00 72 1015.5
20260505211507 8 54 16.1 25.7 0.00 0.00 0.00 72 1015.5
20260505211007 8 52 17.7 27.4 0.00 0.00 0.00 71 1015.5
20260505210508 8 52 17.7 29.0 0.00 0.00 0.00 72 1015.4
20260505210007 8 49 19.3 29.0 0.00 0.00 0.00 73 1015.4
20260505205507 9 51 19.3 29.0 0.00 0.00 0.00 75 1015.3
20260505205007 9 54 17.7 27.4 0.00 0.00 0.00 76 1015.3
20260505204507 9 56 17.7 29.0 0.00 0.00 0.00 75 1015.2
20260505203007 9 51 12.9 32.2 0.00 0.00 0.00 75 1015.1
20260505202507 10 56 11.3 22.5 0.00 0.00 0.00 77 1015.1
20260505202007 10 51 9.7 20.9 0.00 0.00 0.00 77 1015.0
20260505201507 10 48 12.9 17.7 0.00 0.00 0.00 76 1015.0
20260505201007 10 48 14.5 22.5 0.00 0.00 0.00 76 1015.1
20260505200007 10 39 17.7 24.1 0.00 0.00 0.00 76 1014.9
20260505195506 10 41 17.7 27.4 0.00 0.00 0.00 76 1014.7
20260505195007 10 47 16.1 27.4 0.00 0.00 0.00 76 1014.7
20260505194007 10 52 17.7 25.7 0.00 0.00 0.00 76 1014.3
20260505193507 10 49 16.1 27.4 0.00 0.00 0.00 76 1014.5
20260505193007 10 46 17.7 27.4 0.00 0.00 0.00 76 1014.5
20260505192507 10 44 20.9 30.6 0.00 0.00 0.00 75 1014.5
20260505192007 10 47 20.9 37.0 0.00 0.00 0.00 75 1014.3
20260505191507 10 50 19.3 37.0 0.00 0.00 0.00 74 1014.3
20260505191006 10 48 14.5 33.8 0.00 0.00 0.00 74 1014.3
20260505190506 11 55 12.9 25.7 0.00 0.00 0.00 74 1014.2
20260505190007 11 70 12.9 24.1 0.00 0.00 0.00 75 1014.2
20260505185507 11 66 12.9 24.1 0.00 0.00 0.00 75 1014.0
20260505185007 11 61 14.5 22.5 0.00 0.00 0.00 74 1014.1
20260505184007 12 68 11.3 25.7 0.00 0.00 0.00 72 1013.9
20260505183507 12 54 9.7 22.5 0.00 0.00 0.00 69 1013.9
20260505183007 12 33 9.7 14.5 0.00 0.00 0.00 63 1013.7
20260505182507 12 20 9.7 19.3 0.00 0.00 0.00 63 1013.6
20260505182007 12 18 9.7 22.5 0.00 0.00 0.00 63 1013.7
20260505181506 12 15 11.3 22.5 0.00 0.00 0.00 63 1013.6
20260505181006 12 24 12.9 20.9 0.00 0.00 0.00 63 1013.7
20260505180506 12 28 12.9 22.5 0.00 0.00 0.00 63 1013.7
20260505180006 12 27 12.9 22.5 0.00 0.00 0.00 63 1013.7
20260505175507 12 30 12.9 24.1 0.00 0.00 0.00 63 1013.7
20260505175007 13 28 11.3 24.1 0.00 0.00 0.00 62 1013.7
20260505174507 13 22 11.3 20.9 0.00 0.00 0.00 63 1013.5
20260505174007 13 21 12.9 22.5 0.00 0.00 0.00 62 1013.6
20260505173506 13 11 14.5 24.1 0.00 0.00 0.00 62 1013.7
20260505173008 13 7 14.5 24.1 0.00 0.00 0.00 61 1013.6
20260505172507 13 11 14.5 22.5 0.00 0.00 0.00 62 1013.6
20260505172007 13 5 14.5 24.1 0.00 0.00 0.00 62 1013.7
20260505171006 13 21 11.3 22.5 0.00 0.00 0.00 62 1013.7
20260505170006 13 33 11.3 24.1 0.00 0.00 0.00 62 1013.8
20260505165506 13 35 9.7 24.1 0.00 0.00 0.00 62 1013.6
20260505165006 13 25 11.3 17.7 0.00 0.00 0.00 63 1013.7
20260505164507 13 29 11.3 19.3 0.00 0.00 0.00 63 1013.7
20260505164007 13 31 11.3 20.9 0.00 0.00 0.00 62 1013.6
20260505163507 13 38 11.3 20.9 0.00 0.00 0.00 63 1013.7
20260505163008 13 39 11.3 19.3 0.00 0.00 0.00 63 1013.7
20260505162507 13 26 9.7 24.1 0.00 0.00 0.00 62 1013.6
20260505162006 13 12 9.7 24.1 0.00 0.00 0.00 63 1013.7
20260505161506 14 355 11.3 20.9 0.00 0.00 0.00 62 1013.6
20260505161006 14 351 11.3 22.5 0.00 0.00 0.00 62 1013.6
20260505160506 14 343 11.3 22.5 0.00 0.00 0.00 61 1013.6
20260505153006 13 11 12.9 20.9 0.00 0.00 0.00 63 1013.7
20260505152506 13 19 11.3 22.5 0.00 0.00 0.00 63 1013.7
20260505151506 13 8 11.3 19.3 0.00 0.00 0.00 63 1013.8
20260505150507 13 22 11.3 19.3 0.00 0.00 0.00 63 1013.9
20260505140507 13 356 11.3 22.5 0.00 0.00 0.00 64 1013.8
20260505125006 14 358 8.0 14.5 0.00 0.00 0.00 64 1013.7
20260505124006 14 24 6.4 17.7 0.00 0.00 0.00 63 1013.8
20260505123506 14 355 6.4 17.7 0.00 0.00 0.00 63 1013.7
20260505122506 13 10 6.4 14.5 0.00 0.00 0.00 63 1013.8
20260505122006 13 5 9.7 14.5 0.00 0.00 0.00 63 1013.8
20260505121505 14 6 8.0 16.1 0.00 0.00 0.00 62 1013.9
20260505121005 14 1 6.4 17.7 0.00 0.00 0.00 63 1013.9
20260505120506 14 353 6.4 17.7 0.00 0.00 0.00 63 1013.7
20260505120006 14 351 8.0 16.1 0.00 0.00 0.00 64 1013.9
20260505115506 14 12 6.4 16.1 0.00 0.00 0.00 62 1013.8
20260505115006 13 24 6.4 16.1 0.00 0.00 0.00 63 1013.8
20260505114506 14 10 4.8 16.1 0.00 0.00 0.00 63 1014.1
20260505113505 13 16 8.0 14.5 0.00 0.00 0.00 63 1014.0
20260505113006 14 340 9.7 19.3 0.00 0.00 0.00 63 1014.0
20260505112506 14 305 9.7 19.3 0.00 0.00 0.00 62 1014.1
20260505112006 14 293 6.4 17.7 0.00 0.00 0.00 61 1014.1
20260505111506 14 315 6.4 16.1 0.00 0.00 0.00 63 1014.1
20260505111006 13 336 8.0 14.5 0.00 0.00 0.00 65 1014.1
20260505110506 13 345 9.7 14.5 0.00 0.00 0.00 64 1014.1
20260505101505 13 328 4.8 12.9 0.00 0.00 0.00 68 1014.3
20260505101005 13 334 6.4 12.9 0.00 0.00 0.00 67 1014.4
20260505100006 13 339 6.4 16.1 0.00 0.00 0.00 67 1014.5
20260505095505 12 335 6.4 14.5 0.00 0.00 0.00 66 1014.5
20260505094506 12 335 8.0 17.7 0.00 0.00 0.00 66 1014.5
20260505094005 12 339 8.0 17.7 0.00 0.00 0.00 67 1014.5
20260505093505 12 330 6.4 16.1 0.00 0.00 0.00 68 1014.5
20260505093005 12 326 4.8 14.5 0.00 0.00 0.00 69 1014.4
20260505092006 12 335 6.4 12.9 0.00 0.00 0.00 69 1014.5
20260505091505 12 326 6.4 12.9 0.00 0.00 0.00 69 1014.6
20260505091005 12 324 6.4 16.1 0.00 0.00 0.00 68 1014.7
20260505090505 12 320 6.4 16.1 0.00 0.00 0.00 70 1014.6
20260505090005 12 323 6.4 12.9 0.00 0.00 0.00 71 1014.6
20260505085005 12 314 6.4 14.5 0.00 0.00 0.00 71 1014.6
20260505084505 11 317 4.8 14.5 0.00 0.00 0.00 72 1014.7
20260505084005 11 343 4.8 8.0 0.00 0.00 0.00 73 1014.6
20260505083506 11 2 4.8 11.3 0.00 0.00 0.00 73 1014.6
20260505082506 11 346 4.8 9.7 0.00 0.00 0.00 74 1014.7
20260505081505 10 338 4.8 9.7 0.00 0.00 0.00 75 1014.8
20260505081006 10 337 6.4 11.3 0.00 0.00 0.00 76 1014.8
20260505080506 10 348 8.0 12.9 0.00 0.00 0.00 76 1014.9
20260505075505 10 359 8.0 14.5 0.00 0.00 0.00 76 1014.8
20260505075005 10 7 9.7 14.5 0.00 0.00 0.00 77 1014.8
20260505074506 10 18 8.0 16.1 0.00 0.03 0.00 77 1014.6
20260505073505 9 359 6.4 14.5 0.00 0.03 0.00 79 1014.7
20260505073005 9 359 6.4 17.7 0.00 0.03 0.00 79 1014.7
20260505072505 9 357 4.8 17.7 0.00 0.03 0.00 80 1014.8
20260505072006 9 346 3.2 12.9 0.00 0.03 0.00 82 1014.7
20260505071505 8 338 3.2 8.0 0.00 0.03 0.00 83 1014.7
20260505071005 8 346 4.8 6.4 0.00 0.03 0.00 83 1014.9
20260505070505 8 340 6.4 12.9 0.00 0.03 0.00 83 1014.9
20260505070005 8 326 6.4 14.5 0.00 0.03 0.00 84 1014.9
20260505065506 8 323 8.0 14.5 0.00 0.03 0.00 84 1015.0
20260505065005 8 327 8.0 16.1 0.00 0.03 0.00 85 1014.9
20260505064505 8 326 6.4 16.1 0.00 0.03 0.00 85 1014.9
20260505064005 8 321 6.4 14.5 0.00 0.03 0.00 86 1014.9
20260505063505 8 318 8.0 14.5 0.00 0.03 0.00 86 1015.0
20260505063005 8 322 8.0 14.5 0.00 0.03 0.00 87 1014.9
20260505062505 8 321 8.0 14.5 0.00 0.03 0.00 87 1015.0
20260505062005 8 314 6.4 12.9 0.00 0.03 0.00 87 1015.1
20260505061005 8 305 6.4 14.5 0.00 0.03 0.00 88 1015.1
20260505060505 8 309 8.0 14.5 0.00 0.03 0.00 88 1015.1
20260505060006 8 312 6.4 14.5 0.00 0.03 0.00 88 1015.0
20260505055005 8 312 4.8 9.7 0.00 0.03 0.00 89 1015.0
20260505054505 8 314 4.8 8.0 0.00 0.03 0.00 89 1015.1
20260505054005 8 319 4.8 8.0 0.00 0.03 0.00 89 1015.0
20260505053505 8 317 6.4 11.3 0.00 0.03 0.00 89 1015.1
20260505053005 8 308 6.4 12.9 0.00 0.03 0.00 89 1014.9
20260505052505 8 303 6.4 12.9 0.00 0.03 0.00 89 1014.9
20260505052005 8 300 4.8 12.9 0.00 0.03 0.00 89 1014.9